Tracking 19909 objects as of 21-Oct-2019
HD Live streaming from Space Station
objects crossing your sky now

SCOUT G-1 DEB

Track SCOUT G-1 DEB now!
10-day predictions


NORAD ID: 18562
Int'l Code: 1987-080H
Perigee: 985.1 km
Apogee: 1,255.0 km
Inclination: 90.0 °
Period: 107.5 minutes
Semi major axis: 7491 km
RCS: 0.039 m2 (small)
Launch date: September 16, 1987
Source: United States (US)
Launch site: AIR FORCE WESTERN TEST RANGE (AFWTR)

Note: This is SATELLITE DEBRIS
aabbcc
Your satellite tracking list
Your tracking list is empty




NASA's NSSDC Master Catalog

Two Line Element Set (TLE):
1 18562U 87080H   19293.15148469  .00000082  00000-0  12604-3 0  9993
2 18562  90.0020 165.6465 0180173 220.1097 296.3025 13.39020716565239
Source of the keplerian elements: AFSPC